User: anonymous   Login
Location: Weston
(26.1283°N, 80.4075°W)
Time: 03:46:29
(UTC-05:00)
Language:

H-2A R/B - Orbit

View from above orbital plane
View from above orbital plane
View from above satellite
View from above satellite

Ground track
Ground track

The orbit data is extracted from the following two-line orbital elements,

1 26899U 01038B   14352.42501770  .00002810  00000-0  80371-3 0   979
2 26899 028.1016 073.3885 7151858 307.9674 006.9404 02.44202806114028
Epoch (UTC): 18 December 2014 10:12:01
Eccentricity: 0.7151858
inclination: 28.1016°
perigee height: 256 km
apogee height: 33574 km
right ascension of ascending node: 73.3885°
argument of perigee: 307.9674°
revolutions per day: 2.44202806
mean anomaly at epoch: 6.9404°
orbit number at epoch: 11402

The dashed part of the orbit path shows where the satellite is in the earth's shadow,  

DLR